Superior, WI

3:58 AM CDT on April 27, 2018 (GMT -0500)
Bong

Weather History for KSUW - August, 2014

Change the Weather History Date:

Thursday, August 28, 2014

  Actual Average Record
Temperature  
Mean Temperature 58 °F -  
Max Temperature 70 °F 74 °F 95 °F (1984)
Min Temperature 45 °F 54 °F 36 °F (1986)
Degree Days  
Heating Degree Days 8    
Growing Degree Days 8 (Base 50)    
Moisture  
Dew Point 55 °F    
Average Humidity 87    
Maximum Humidity 100    
Minimum Humidity 64    
Precipitation  
Precipitation 0.00 in - - ()
Sea Level Pressure  
Sea Level Pressure 30.06 in    
Wind  
Wind Speed 3 mph (ENE)    
Max Wind Speed 10 mph    
Max Gust Speed -    
Visibility 8 miles    
Events Fog    
Averages and records for this station are not official NWS values.
T = Trace of Precipitation, MM = Missing Value Source: NWS Daily Summary

Daily Weather History Graph

Daily Weather History Graph

Search for Another Location

Airport or City:

Astronomy

Aug. 28, 2014 Rise Set
Actual Time 6:23 AM CDT 7:55 PM CDT
Civil Twilight 5:51 AM CDT 8:26 PM CDT
Nautical Twilight 5:12 AM CDT 9:05 PM CDT
Astronomical Twilight 4:31 AM CDT 9:46 PM CDT
Moon 9:29 AM CDT (8/28) 9:04 PM CDT (8/28)
Length of Visible Light 14h 35m
Length of Day
13h 32m
Waxing Crescent, 9% of the Moon is Illuminated
Aug 28
Waxing Crescent
Sep 2
First Quarter
Sep 8
Full
Sep 15
Last Quarter
Sep 24
New

Hourly Weather History & Observations

Time (CDT) Temp. Dew Point Humidity Pressure Visibility Wind Dir Wind Speed Gust Speed Precip Events Conditions
12:15 AM 52.9 °F 52.5 °F 99% 30.15 in 10.0 mi South 4.6 mph - N/A   Clear
12:35 AM 52.9 °F 52.5 °F 99% 30.15 in 10.0 mi SSW 5.8 mph - N/A   Clear
12:55 AM 52.3 °F 51.6 °F 97% 30.15 in 10.0 mi SSW 4.6 mph - N/A   Clear
1:15 AM 51.3 °F 50.4 °F 97% 30.15 in 10.0 mi WSW 3.5 mph - N/A   Clear
1:35 AM 52.9 °F 52.5 °F 99% 30.15 in 10.0 mi Calm Calm - N/A   Clear
1:55 AM 50.9 °F 50.4 °F 98% 30.14 in 10.0 mi South 4.6 mph - N/A   Clear
2:15 AM 50.9 °F 50.9 °F 100% 30.13 in 10.0 mi South 3.5 mph - N/A   Clear
2:35 AM 50.2 °F 50.2 °F 100% 30.13 in 10.0 mi Calm Calm - N/A   Clear
2:55 AM 50.5 °F 50.4 °F 99% 30.13 in 10.0 mi Calm Calm - N/A   Clear
3:15 AM 48.9 °F 48.7 °F 99% 30.13 in 0.8 mi Calm Calm - N/A   Mist
3:35 AM 48.9 °F 48.9 °F 100% 30.13 in 5.0 mi Calm Calm - N/A   Clear
3:55 AM 48.0 °F 48.0 °F 100% 30.12 in 3.0 mi Calm Calm - N/A   Clear
4:15 AM 45.9 °F 45.7 °F 99% 30.12 in 4.0 mi Calm Calm - N/A   Clear
4:35 AM 47.3 °F 47.3 °F 100% 30.12 in 0.8 mi Calm Calm - N/A   Mist
4:55 AM 45.9 °F 45.9 °F 100% 30.12 in 1.5 mi Calm Calm - N/A   Mostly Cloudy
5:15 AM 46.2 °F 46.2 °F 100% 30.12 in 1.2 mi Calm Calm - N/A   Overcast
5:35 AM 45.9 °F 45.9 °F 100% 30.12 in 0.5 mi Calm Calm - N/A Fog Fog
5:55 AM 46.0 °F 46.0 °F 100% 30.12 in 0.2 mi Calm Calm - N/A Fog Fog
6:15 AM 46.0 °F 46.0 °F 100% 30.11 in 0.2 mi Calm Calm - N/A Fog Fog
6:35 AM 45.5 °F 45.5 °F 100% 30.11 in 0.5 mi Calm Calm - N/A Fog Fog
6:55 AM 46.2 °F 46.2 °F 100% 30.12 in 0.2 mi Calm Calm - N/A Fog Fog
7:15 AM 48.6 °F 48.6 °F 100% 30.12 in 0.5 mi Calm Calm - N/A Fog Fog
7:35 AM 50.2 °F 50.2 °F 100% 30.12 in 0.2 mi Calm Calm - N/A Fog Fog
7:55 AM 51.8 °F 51.8 °F 100% 30.12 in 0.2 mi Calm Calm - N/A Fog Fog
8:15 AM 54.0 °F 54.0 °F 100% 30.12 in 0.5 mi Calm Calm - N/A Fog Fog
8:35 AM 56.5 °F 56.5 °F 100% 30.12 in 3.0 mi Calm Calm - N/A   Overcast
8:55 AM 58.5 °F 58.3 °F 99% 30.12 in 10.0 mi Calm Calm - N/A   Scattered Clouds
9:15 AM 60.3 °F 56.5 °F 87% 30.12 in 10.0 mi Calm Calm - N/A   Clear
9:55 AM 62.1 °F 54.0 °F 75% 30.11 in 10.0 mi Calm Calm - N/A   Clear
10:15 AM 64.6 °F 54.0 °F 68% 30.12 in 10.0 mi Calm Calm - N/A   Clear
10:35 AM 66.0 °F 54.5 °F 66% 30.11 in 10.0 mi Calm Calm - N/A   Clear
10:55 AM 67.3 °F 55.4 °F 66% 30.10 in 10.0 mi Calm Calm - N/A   Clear
11:15 AM 68.5 °F 56.1 °F 64% 30.10 in 10.0 mi Calm Calm - N/A   Clear
11:35 AM 68.0 °F 56.7 °F 67% 30.09 in 10.0 mi NE 5.8 mph - N/A   Clear
11:55 AM 69.4 °F 57.6 °F 66% 30.09 in 10.0 mi East 5.8 mph - N/A   Clear
12:15 PM 69.1 °F 57.0 °F 65% 30.08 in 10.0 mi ENE 5.8 mph - N/A   Clear
12:35 PM 69.1 °F 56.5 °F 64% 30.07 in 10.0 mi ENE 6.9 mph - N/A   Clear
12:55 PM 68.7 °F 56.8 °F 66% 30.07 in 10.0 mi ENE 8.1 mph - N/A   Clear
1:15 PM 68.9 °F 57.7 °F 68% 30.06 in 10.0 mi NE 9.2 mph - N/A   Clear
1:35 PM 67.3 °F 57.7 °F 71% 30.06 in 10.0 mi NE 9.2 mph - N/A   Clear
1:55 PM 67.3 °F 57.6 °F 71% 30.05 in 10.0 mi ENE 8.1 mph - N/A   Clear
2:15 PM 68.0 °F 57.6 °F 69% 30.04 in 10.0 mi ENE 8.1 mph - N/A   Clear
2:35 PM 70.0 °F 59.5 °F 69% 30.03 in 10.0 mi NE 9.2 mph - N/A   Clear
2:55 PM 69.3 °F 59.5 °F 71% 30.03 in 10.0 mi NE 9.2 mph - N/A   Scattered Clouds
3:15 PM 68.2 °F 59.4 °F 73% 30.02 in 10.0 mi ENE 8.1 mph - N/A   Scattered Clouds
3:35 PM 66.6 °F 58.5 °F 75% 30.02 in 10.0 mi ENE 9.2 mph - N/A   Clear
3:55 PM 67.3 °F 58.8 °F 74% 30.02 in 10.0 mi ENE 6.9 mph - N/A   Scattered Clouds
4:15 PM 66.9 °F 58.5 °F 74% 30.02 in 10.0 mi NE 10.4 mph - N/A   Scattered Clouds
4:35 PM 66.2 °F 57.7 °F 74% 30.01 in 10.0 mi NE 8.1 mph - N/A   Scattered Clouds
4:55 PM 64.4 °F 57.6 °F 78% 30.01 in 10.0 mi ENE 8.1 mph - N/A   Clear
5:15 PM 63.9 °F 57.0 °F 78% 30.01 in 10.0 mi NE 9.2 mph - N/A   Clear
5:35 PM 63.5 °F 57.2 °F 80% 30.00 in 10.0 mi ENE 9.2 mph - N/A   Clear
5:55 PM 63.1 °F 57.2 °F 81% 30.00 in 10.0 mi NE 6.9 mph - N/A   Clear
6:15 PM 62.8 °F 57.6 °F 83% 30.00 in 10.0 mi NE 5.8 mph - N/A   Scattered Clouds
6:35 PM 62.6 °F 56.8 °F 81% 29.99 in 10.0 mi NE 4.6 mph - N/A   Scattered Clouds
6:55 PM 62.4 °F 57.2 °F 83% 29.99 in 10.0 mi NE 6.9 mph - N/A   Clear
7:15 PM 62.1 °F 57.4 °F 85% 29.99 in 10.0 mi ENE 6.9 mph - N/A   Clear
7:35 PM 61.7 °F 57.6 °F 86% 30.00 in 10.0 mi NE 8.1 mph - N/A   Scattered Clouds
7:55 PM 61.3 °F 57.7 °F 88% 29.99 in 10.0 mi NE 4.6 mph - N/A   Clear
8:15 PM 61.2 °F 58.1 °F 90% 29.99 in 10.0 mi NE 4.6 mph - N/A   Clear
8:35 PM 61.2 °F 58.1 °F 90% 29.99 in 10.0 mi NE 5.8 mph - N/A   Clear
8:55 PM 61.0 °F 59.0 °F 93% 29.99 in 10.0 mi NE 3.5 mph - N/A   Scattered Clouds
9:15 PM 61.2 °F 59.4 °F 94% 29.99 in 10.0 mi NE 4.6 mph - N/A   Scattered Clouds
9:35 PM 61.2 °F 59.4 °F 94% 29.98 in 10.0 mi NE 3.5 mph - N/A   Clear
9:55 PM 61.3 °F 59.5 °F 94% 29.97 in 10.0 mi NNE 3.5 mph - N/A   Clear
10:15 PM 61.3 °F 59.9 °F 95% 29.96 in 10.0 mi Calm Calm - N/A   Scattered Clouds
10:35 PM 61.7 °F 60.1 °F 94% 29.96 in 10.0 mi NE 3.5 mph - N/A   Clear
10:55 PM 61.3 °F 60.1 °F 96% 29.95 in 10.0 mi NE 3.5 mph - N/A   Clear
11:15 PM 61.7 °F 60.6 °F 96% 29.96 in 10.0 mi Calm Calm - N/A   Mostly Cloudy
11:35 PM 61.7 °F 59.7 °F 93% 29.96 in 10.0 mi NE 5.8 mph - N/A   Overcast
11:55 PM 61.7 °F 59.2 °F 91% 29.95 in 10.0 mi NE 6.9 mph - N/A   Overcast